DELTA 1 DEB, 12581

Orbit data source: Space-Track

DELTA 1 DEB, 12581 is space debris in LEO originally from a launch on Thu, 29 Jul 1976 UTC launched from the Air Force Western Test Range (AFWTR). Debris objects in space refer to the collection of defunct objects orbiting the Earth. Examples of debris include non-operational satellites, rocket bodies, and fragments generated from explosions, collisions, or faulty payload assembly.

Loading next visibility...
Identifier
12581, 1976-077DZ
Orbit
LEO
Country
Flag of USUS
Related business
Manufacturer
Unknown
Mission
Spacecraft
Bus & Motor
Unknown
Mass
Unknown
Launch date (UTC)
1976-07-29 (50 years ago)
Launch vehicle
Unknown
Launch site
Air Force Western Test Range (AFWTR)
Object type
Payload
Rocket body
Debris
Shape & HBR
Unknown shape, 0.1 m
Radar Cross Section
Small (<0.1 m²)

Expand to show TLE details & history
Last TLE update: 17 hours ago

TLE from 17 hours ago
0 DELTA 1 DEB
1 12581U 76077DZ  26118.60628725 -.00000092  00000-0 -77693-3 0  9996
2 12581 102.4625 359.5883 0380909 233.4793 153.7046 11.70244559 59592
Epoch: 2026-04-28T14:33Z
TLE epoch observation values (Epoch: 2026-04-28T14:33:03.218Z)
Latitude
28.32974°
Longitude
-82.06601°
Altitude
2,102.097 km
Speed
6.74 km/s
True Right ascension
23h 31m 06s
True Declination
28° 12' 33"
Sunlit
Object was in daylight at epoch
Visualization orbit readout
Latitude
Unknown
Longitude
Unknown
Altitude
Unknown
Speed
Unknown
Apparent Right ascension
Unknown
Apparent Declination
Unknown
Sunlit
N/A
Visualization observer readout
Local Sidereal Time
15:31:26
Azimuth
Unknown
Elevation
Unknown
Doppler factor
Unknown
Orbital elements
Apogee altitude
2,126.654 km
Perigee altitude
1,502.518 km
Semi-major axis
8,192.723 km
Eccentricity
0.03809
Inclination
102.4625°
RAAN
359.5883°
Arg. of periapsis
233.4793°
True anomaly
155.55864°
Mean anomaly
153.7046°
Eccentric anomaly
154.63937°
Mean motion
2.92685 °/min
Orbital period
123 mins
BSTAR
-0.00077693
Loading maneuver chart data...
Computing Atmospheric mass density...
Loading historical data...
Loading historical data...
Loading historical data...
Loading historical data...
Loading historical data...
Loading historical data...
Loading historical data...

Documentation

Showing up to 5 results
|